Location: Unspecified
(0.0000°N, 0.0000°E)
Time: 18:53:50
(UTC+00:00)

KAITUO 1B - Visible Passes

Search period start: 06 December 2019 00:00
Search period end: 16 December 2019 00:00
Orbit: 497 x 515 km, 97.5° (Epoch: 06 December)

Date Brightness Start Highest point End Pass type
(mag) Time Alt. Az. Time Alt. Az. Time Alt. Az.
08 Dec ? 05:26:29 10° NE 05:29:32 24° ESE 05:32:34 10° SSE visible
08 Dec ? 18:52:40 10° SW 18:54:15 12° WSW 18:55:50 10° WNW visible
09 Dec ? 05:10:03 10° ENE 05:11:47 13° ESE 05:13:31 10° SE visible
09 Dec ? 18:33:32 10° SSW 18:36:30 23° W 18:39:30 10° NW visible
10 Dec ? 18:15:13 10° S 18:18:45 46° W 18:22:18 10° NNW visible
13 Dec ? 18:58:27 10° WSW 18:59:06 10° WSW 18:59:45 10° W visible
14 Dec ? 05:14:26 10° ENE 05:16:39 15° ESE 05:18:51 10° SE visible
14 Dec ? 18:38:36 10° SSW 18:41:21 20° WSW 18:44:06 10° NW visible
15 Dec ? 18:20:09 10° S 18:23:36 38° W 18:27:03 10° NNW visible
